This is the latest recevied weather packets stored in our database for station/object N8HON. If no packets are shown the sender has not sent any weather packets the latest 10 day(s).
| Time | Temp. | Humidity | Pressure | Rain* | Wind** | Luminosity | Snow |
|---|---|---|---|---|---|---|---|
| 1777786675 | 3.89° C | 66% | 1012.7 hPa | 0 mm | - | 0 W/m² | - |
| 1777786375 | 3.89° C | 71% | 1012.7 hPa | 0 mm | - | 0 W/m² | - |
| 1777786070 | 3.89° C | 70% | 1012.5 hPa | 0 mm | - | 0 W/m² | - |
| 1777785767 | 4.44° C | 71% | 1012.7 hPa | 0 mm | - | 0 W/m² | - |
| 1777785462 | 4.44° C | 69% | 1012.6 hPa | 0 mm | - | 0 W/m² | - |
| 1777785161 | 4.44° C | 68% | 1012.8 hPa | 0 mm | - | 0 W/m² | - |
| 1777784856 | 3.89° C | 68% | 1012.7 hPa | 0 mm | - | 0 W/m² | - |
| 1777784552 | 3.89° C | 68% | 1012.9 hPa | 0 mm | - | 0 W/m² | - |
| 1777784250 | 3.89° C | 69% | 1012.8 hPa | 0 mm | - | 0 W/m² | - |
| 1777783948 | 3.89° C | 71% | 1012.6 hPa | 0 mm | - | 0 W/m² | - |
| 1777783644 | 3.89° C | 71% | 1012.8 hPa | 0 mm | - | 0 W/m² | - |
| 1777783341 | 3.89° C | 72% | 1012.5 hPa | 0 mm | - | 0 W/m² | - |
| 1777783038 | 3.89° C | 71% | 1012.8 hPa | 0 mm | - | 0 W/m² | - |
| 1777782736 | 3.89° C | 71% | 1012.9 hPa | 0 mm | - | 0 W/m² | - |
| 1777782431 | 3.89° C | 72% | 1012.9 hPa | 0 mm | - | 0 W/m² | - |
| 1777782128 | 3.89° C | 72% | 1012.9 hPa | 0 mm | - | 0 W/m² | - |
| 1777781824 | 3.89° C | 71% | 1013 hPa | 0 mm | - | 0 W/m² | - |
| 1777781522 | 3.89° C | 71% | 1012.9 hPa | 0 mm | - | 0 W/m² | - |
| 1777781219 | 4.44° C | 71% | 1013.2 hPa | 0 mm | - | 0 W/m² | - |
| 1777780917 | 4.44° C | 70% | 1012.8 hPa | 0 mm | - | 0 W/m² | - |
| 1777780613 | 4.44° C | 69% | 1013 hPa | 0 mm | - | 0 W/m² | - |
| 1777780311 | 5° C | 67% | 1013 hPa | 0 mm | - | 0 W/m² | - |
| 1777780008 | 5° C | 67% | 1012.9 hPa | 0 mm | - | 0 W/m² | - |
| 1777779705 | 5° C | 68% | 1013 hPa | 0 mm | - | 0 W/m² | - |
| 1777779402 | 5° C | 68% | 1013.1 hPa | 0 mm | - | 0 W/m² | - |
* Rain latest hour (hover to see other rain measurements)
** Current wind speed in m/s (hover to see current wind gust speed)